Time,TemperatureF,DewpointF,PressureIn,WindDirection,WindDirectionDegrees,WindSpeedMPH,WindSpeedGustMPH,Humidity,HourlyPrecipIn,Conditions,Clouds,dailyrainin,SolarRadiationWatts/m^2,SoftwareType,DateUTC
2013-07-27 00:01:00,70.6,66.9,30.01,South,182,0.0,-999.0,88,0.00,,,0.00,0,Wunderground v.1.15,2013-07-27 04:01:00,
2013-07-27 00:02:00,70.6,66.9,30.01,South,182,0.0,-999.0,88,0.00,,,0.00,0,Wunderground v.1.15,2013-07-27 04:02:00,
2013-07-27 00:03:00,70.6,66.9,30.01,South,182,0.0,-999.0,88,0.00,,,0.00,0,Wunderground v.1.15,2013-07-27 04:03:00,
2013-07-27 00:04:00,70.6,66.9,30.01,South,182,0.0,-999.0,88,0.00,,,0.00,0,Wunderground v.1.15,2013-07-27 04:04:00,
2013-07-27 00:09:00,70.5,66.8,30.01,South,182,0.0,-999.0,88,0.00,,,0.00,0,Wunderground v.1.15,2013-07-27 04:09:00,
2013-07-27 00:11:00,70.5,66.8,30.01,South,182,0.0,-999.0,88,0.00,,,0.00,0,Wunderground v.1.15,2013-07-27 04:11:00,
2013-07-27 00:17:00,70.4,66.7,30.01,South,182,0.0,-999.0,88,0.00,,,0.00,0,Wunderground v.1.15,2013-07-27 04:17:00,
2013-07-27 00:22:00,70.3,66.9,30.01,South,182,0.0,-999.0,89,0.00,,,0.00,0,Wunderground v.1.15,2013-07-27 04:22:00,
2013-07-27 00:27:00,70.3,66.6,30.01,South,182,0.0,-999.0,88,0.00,,,0.00,0,Wunderground v.1.15,2013-07-27 04:27:00,
2013-07-27 00:32:00,70.2,66.5,30.02,South,182,0.0,-999.0,88,0.00,,,0.00,0,Wunderground v.1.15,2013-07-27 04:32:00,
2013-07-27 00:38:00,70.1,66.4,30.01,South,182,0.0,-999.0,88,0.00,,,0.00,0,Wunderground v.1.15,2013-07-27 04:38:00,
2013-07-27 00:43:00,70.1,66.7,30.01,South,182,0.0,-999.0,89,0.00,,,0.00,0,Wunderground v.1.15,2013-07-27 04:43:00,
2013-07-27 00:48:00,70.0,66.6,30.01,South,182,0.0,-999.0,89,0.00,,,0.00,0,Wunderground v.1.15,2013-07-27 04:48:00,
2013-07-27 00:54:00,69.9,66.5,30.01,South,182,0.0,-999.0,89,0.00,,,0.00,0,Wunderground v.1.15,2013-07-27 04:54:00,
2013-07-27 00:59:00,69.8,66.4,30.01,South,182,0.0,-999.0,89,0.00,,,0.00,0,Wunderground v.1.15,2013-07-27 04:59:00,
2013-07-27 01:05:00,69.7,66.3,30.01,South,182,0.0,-999.0,89,0.00,,,0.00,0,Wunderground v.1.15,2013-07-27 05:05:00,
2013-07-27 01:10:00,69.7,66.3,30.01,South,182,0.0,-999.0,89,0.00,,,0.00,0,Wunderground v.1.15,2013-07-27 05:10:00,
2013-07-27 01:15:00,69.6,66.2,30.01,South,182,0.0,-999.0,89,0.00,,,0.00,0,Wunderground v.1.15,2013-07-27 05:15:00,
2013-07-27 01:21:00,69.5,66.1,30.01,South,182,0.0,-999.0,89,0.00,,,0.00,0,Wunderground v.1.15,2013-07-27 05:21:00,
2013-07-27 01:26:00,69.5,66.1,30.01,South,182,0.0,-999.0,89,0.00,,,0.00,0,Wunderground v.1.15,2013-07-27 05:26:00,
2013-07-27 01:31:00,69.4,66.0,30.00,South,182,0.0,-999.0,89,0.00,,,0.00,0,Wunderground v.1.15,2013-07-27 05:31:00,
2013-07-27 01:37:00,69.3,65.9,30.00,South,182,0.0,-999.0,89,0.00,,,0.00,0,Wunderground v.1.15,2013-07-27 05:37:00,
2013-07-27 01:42:00,69.2,65.8,30.00,South,182,0.0,-999.0,89,0.00,,,0.00,0,Wunderground v.1.15,2013-07-27 05:42:00,
2013-07-27 01:48:00,69.1,65.7,30.00,South,182,0.0,-999.0,89,0.00,,,0.00,0,Wunderground v.1.15,2013-07-27 05:48:00,
2013-07-27 01:53:00,69.0,65.6,30.00,South,182,0.0,-999.0,89,0.00,,,0.00,0,Wunderground v.1.15,2013-07-27 05:53:00,
2013-07-27 01:59:00,68.9,65.5,30.00,South,182,0.0,-999.0,89,0.00,,,0.00,0,Wunderground v.1.15,2013-07-27 05:59:00,
2013-07-27 02:04:00,68.9,65.5,30.00,South,182,0.0,-999.0,89,0.00,,,0.00,0,Wunderground v.1.15,2013-07-27 06:04:00,
2013-07-27 02:10:00,68.9,65.5,30.00,South,182,0.0,-999.0,89,0.00,,,0.00,0,Wunderground v.1.15,2013-07-27 06:10:00,
2013-07-27 02:15:00,68.9,65.5,30.00,South,182,0.0,-999.0,89,0.00,,,0.00,0,Wunderground v.1.15,2013-07-27 06:15:00,
2013-07-27 02:21:00,68.9,65.5,30.00,WSW,258,0.0,-999.0,89,0.00,,,0.00,0,Wunderground v.1.15,2013-07-27 06:21:00,
2013-07-27 02:26:00,69.1,65.4,29.99,WSW,258,0.0,-999.0,88,0.00,,,0.00,0,Wunderground v.1.15,2013-07-27 06:26:00,
2013-07-27 02:32:00,69.2,65.5,29.99,SE,138,0.0,-999.0,88,0.00,,,0.00,0,Wunderground v.1.15,2013-07-27 06:32:00,
2013-07-27 02:37:00,69.4,65.4,29.99,SSE,150,0.0,-999.0,87,0.00,,,0.00,0,Wunderground v.1.15,2013-07-27 06:37:00,
2013-07-27 02:42:00,69.6,65.6,29.99,SSE,150,0.0,-999.0,87,0.00,,,0.00,0,Wunderground v.1.15,2013-07-27 06:42:00,
2013-07-27 02:47:00,69.7,65.7,29.98,SE,142,0.0,-999.0,87,0.00,,,0.00,0,Wunderground v.1.15,2013-07-27 06:47:00,
2013-07-27 02:53:00,69.8,65.8,29.98,West,265,0.0,-999.0,87,0.00,,,0.00,0,Wunderground v.1.15,2013-07-27 06:53:00,
2013-07-27 02:59:00,69.9,65.5,29.98,SW,214,0.0,-999.0,86,0.00,,,0.00,0,Wunderground v.1.15,2013-07-27 06:59:00,
2013-07-27 03:04:00,70.1,65.7,29.98,SW,214,0.0,-999.0,86,0.00,,,0.00,0,Wunderground v.1.15,2013-07-27 07:04:00,
2013-07-27 03:10:00,70.2,65.8,29.98,SSW,213,0.0,-999.0,86,0.00,,,0.00,0,Wunderground v.1.15,2013-07-27 07:10:00,
2013-07-27 03:15:00,70.2,65.8,29.98,SSW,209,0.0,-999.0,86,0.00,,,0.00,0,Wunderground v.1.15,2013-07-27 07:15:00,
2013-07-27 03:21:00,70.3,65.9,29.98,SSW,209,0.0,-999.0,86,0.00,,,0.00,0,Wunderground v.1.15,2013-07-27 07:21:00,
2013-07-27 03:27:00,70.4,66.3,29.98,SSW,209,0.0,-999.0,87,0.00,,,0.00,0,Wunderground v.1.15,2013-07-27 07:27:00,
2013-07-27 03:33:00,70.4,66.3,29.98,SSW,209,0.0,-999.0,87,0.00,,,0.00,0,Wunderground v.1.15,2013-07-27 07:33:00,
2013-07-27 03:39:00,70.3,66.2,29.98,SSW,209,0.0,-999.0,87,0.00,,,0.00,0,Wunderground v.1.15,2013-07-27 07:39:00,
2013-07-27 03:44:00,70.3,66.2,29.98,SSW,209,0.0,-999.0,87,0.00,,,0.00,0,Wunderground v.1.15,2013-07-27 07:44:00,
2013-07-27 03:50:00,70.3,66.6,29.97,SSW,209,0.0,-999.0,88,0.00,,,0.00,0,Wunderground v.1.15,2013-07-27 07:50:00,
2013-07-27 03:55:00,70.4,66.7,29.97,SSE,165,0.0,-999.0,88,0.00,,,0.00,0,Wunderground v.1.15,2013-07-27 07:55:00,
2013-07-27 04:00:00,70.5,67.1,29.97,SW,235,0.0,-999.0,89,0.00,,,0.00,0,Wunderground v.1.15,2013-07-27 08:00:00,
2013-07-27 04:05:00,70.7,67.6,29.97,WSW,252,0.0,-999.0,90,0.00,,,0.00,0,Wunderground v.1.15,2013-07-27 08:05:00,
2013-07-27 04:11:00,70.9,67.8,29.97,WSW,250,0.0,-999.0,90,0.00,,,0.00,0,Wunderground v.1.15,2013-07-27 08:11:00,
2013-07-27 04:17:00,71.0,68.2,29.97,WSW,248,0.0,-999.0,91,0.00,,,0.00,0,Wunderground v.1.15,2013-07-27 08:17:00,
2013-07-27 04:22:00,71.1,68.3,29.97,WSW,242,0.0,-999.0,91,0.00,,,0.00,0,Wunderground v.1.15,2013-07-27 08:22:00,
2013-07-27 04:27:00,71.1,68.3,29.97,SW,223,0.0,-999.0,91,0.00,,,0.00,0,Wunderground v.1.15,2013-07-27 08:27:00,
2013-07-27 04:33:00,71.2,68.4,29.97,West,279,0.0,-999.0,91,0.00,,,0.00,0,Wunderground v.1.15,2013-07-27 08:33:00,
2013-07-27 04:38:00,71.2,68.8,29.97,SW,236,0.0,-999.0,92,0.00,,,0.00,0,Wunderground v.1.15,2013-07-27 08:38:00,
2013-07-27 04:43:00,71.2,68.8,29.96,WSW,246,0.0,-999.0,92,0.00,,,0.00,0,Wunderground v.1.15,2013-07-27 08:43:00,
2013-07-27 04:49:00,71.2,68.8,29.96,West,259,0.0,-999.0,92,0.00,,,0.00,0,Wunderground v.1.15,2013-07-27 08:49:00,
2013-07-27 04:55:00,71.2,68.8,29.96,SE,136,0.0,-999.0,92,0.00,,,0.00,0,Wunderground v.1.15,2013-07-27 08:55:00,
2013-07-27 05:01:00,71.2,68.8,29.96,South,182,0.0,-999.0,92,0.00,,,0.00,0,Wunderground v.1.15,2013-07-27 09:01:00,
2013-07-27 05:07:00,71.2,68.8,29.96,South,191,0.0,-999.0,92,0.00,,,0.00,0,Wunderground v.1.15,2013-07-27 09:07:00,
2013-07-27 05:12:00,71.1,68.7,29.96,SSW,195,0.0,-999.0,92,0.00,,,0.00,0,Wunderground v.1.15,2013-07-27 09:12:00,
2013-07-27 05:18:00,71.1,68.7,29.96,South,190,0.0,-999.0,92,0.00,,,0.00,0,Wunderground v.1.15,2013-07-27 09:18:00,
2013-07-27 05:23:00,71.0,68.6,29.96,South,190,0.0,-999.0,92,0.00,,,0.00,0,Wunderground v.1.15,2013-07-27 09:23:00,
2013-07-27 05:29:00,70.9,68.5,29.96,South,177,0.0,-999.0,92,0.00,,,0.00,0,Wunderground v.1.15,2013-07-27 09:29:00,
2013-07-27 05:34:00,70.8,68.4,29.96,South,177,0.0,-999.0,92,0.00,,,0.00,0,Wunderground v.1.15,2013-07-27 09:34:00,
2013-07-27 05:40:00,70.7,68.3,29.96,South,182,0.0,-999.0,92,0.00,,,0.00,0,Wunderground v.1.15,2013-07-27 09:40:00,
2013-07-27 05:45:00,70.7,68.6,29.96,SSE,161,0.0,-999.0,93,0.00,,,0.00,0,Wunderground v.1.15,2013-07-27 09:45:00,
2013-07-27 05:51:00,70.6,68.2,29.96,SW,233,0.0,-999.0,92,0.00,,,0.00,0,Wunderground v.1.15,2013-07-27 09:51:00,
2013-07-27 05:57:00,70.5,68.1,29.97,SW,232,0.0,-999.0,92,0.00,,,0.00,0,Wunderground v.1.15,2013-07-27 09:57:00,
2013-07-27 06:03:00,70.5,68.1,29.97,SW,232,0.0,-999.0,92,0.00,,,0.00,0,Wunderground v.1.15,2013-07-27 10:03:00,
2013-07-27 06:08:00,70.4,68.3,29.97,SW,232,0.0,-999.0,93,0.00,,,0.00,0,Wunderground v.1.15,2013-07-27 10:08:00,
2013-07-27 06:13:00,70.4,68.3,29.97,SW,232,0.0,-999.0,93,0.00,,,0.00,0,Wunderground v.1.15,2013-07-27 10:13:00,
2013-07-27 06:18:00,70.4,68.3,29.98,SW,232,0.0,-999.0,93,0.00,,,0.00,0,Wunderground v.1.15,2013-07-27 10:18:00,
2013-07-27 06:24:00,70.4,68.3,29.98,SW,232,0.0,-999.0,93,0.00,,,0.00,0,Wunderground v.1.15,2013-07-27 10:24:00,
2013-07-27 06:29:00,70.3,68.2,29.98,SW,232,0.0,-999.0,93,0.00,,,0.00,5,Wunderground v.1.15,2013-07-27 10:29:00,
2013-07-27 06:34:00,70.3,68.2,29.98,SW,223,0.0,-999.0,93,0.00,,,0.00,9,Wunderground v.1.15,2013-07-27 10:34:00,
2013-07-27 06:40:00,70.3,68.2,29.98,WNW,290,0.0,-999.0,93,0.00,,,0.00,11,Wunderground v.1.15,2013-07-27 10:40:00,
2013-07-27 06:45:00,70.4,68.3,29.99,WNW,287,0.0,-999.0,93,0.00,,,0.00,12,Wunderground v.1.15,2013-07-27 10:45:00,
2013-07-27 06:50:00,70.4,68.3,29.98,WNW,288,0.0,-999.0,93,0.00,,,0.00,18,Wunderground v.1.15,2013-07-27 10:50:00,
2013-07-27 06:56:00,70.4,68.3,29.98,WNW,288,0.0,-999.0,93,0.00,,,0.00,25,Wunderground v.1.15,2013-07-27 10:56:00,
2013-07-27 07:02:00,70.4,68.3,29.99,WNW,283,0.0,-999.0,93,0.00,,,0.00,33,Wunderground v.1.15,2013-07-27 11:02:00,
2013-07-27 07:07:00,70.5,68.4,29.99,WNW,283,0.0,-999.0,93,0.00,,,0.00,40,Wunderground v.1.15,2013-07-27 11:07:00,
2013-07-27 07:12:00,70.6,68.5,29.99,WNW,284,0.0,-999.0,93,0.00,,,0.00,46,Wunderground v.1.15,2013-07-27 11:12:00,
2013-07-27 07:17:00,70.6,68.5,29.99,WNW,283,0.0,-999.0,93,0.00,,,0.00,62,Wunderground v.1.15,2013-07-27 11:17:00,
2013-07-27 07:23:00,70.7,68.6,29.99,WNW,284,0.0,-999.0,93,0.00,,,0.00,67,Wunderground v.1.15,2013-07-27 11:23:00,
2013-07-27 07:28:00,70.8,68.7,29.99,WNW,283,0.0,-999.0,93,0.00,,,0.00,65,Wunderground v.1.15,2013-07-27 11:28:00,
2013-07-27 07:34:00,70.9,68.8,29.99,WNW,283,0.0,-999.0,93,0.00,,,0.00,67,Wunderground v.1.15,2013-07-27 11:34:00,
2013-07-27 07:39:00,70.9,68.8,29.99,WNW,283,0.0,-999.0,93,0.00,,,0.00,72,Wunderground v.1.15,2013-07-27 11:39:00,
2013-07-27 07:45:00,71.0,68.6,30.00,WNW,283,0.0,-999.0,92,0.00,,,0.00,74,Wunderground v.1.15,2013-07-27 11:45:00,
2013-07-27 07:51:00,71.1,68.7,30.00,WNW,284,0.0,-999.0,92,0.00,,,0.00,74,Wunderground v.1.15,2013-07-27 11:51:00,
2013-07-27 07:56:00,71.2,68.8,30.00,WNW,284,0.0,-999.0,92,0.00,,,0.00,77,Wunderground v.1.15,2013-07-27 11:56:00,
2013-07-27 08:02:00,71.3,68.9,30.00,WNW,283,0.0,-999.0,92,0.00,,,0.00,76,Wunderground v.1.15,2013-07-27 12:02:00,
2013-07-27 08:07:00,71.3,68.9,30.00,WNW,283,0.0,-999.0,92,0.00,,,0.00,86,Wunderground v.1.15,2013-07-27 12:07:00,
2013-07-27 08:13:00,71.4,69.0,30.00,WNW,283,0.0,-999.0,92,0.00,,,0.00,98,Wunderground v.1.15,2013-07-27 12:13:00,
2013-07-27 08:18:00,71.6,69.2,30.00,WNW,283,0.0,-999.0,92,0.00,,,0.00,104,Wunderground v.1.15,2013-07-27 12:18:00,
2013-07-27 08:23:00,71.7,69.3,30.00,WNW,284,0.0,-999.0,92,0.00,,,0.00,107,Wunderground v.1.15,2013-07-27 12:23:00,
2013-07-27 08:29:00,71.8,69.3,30.00,WNW,284,0.0,-999.0,92,0.00,,,0.00,107,Wunderground v.1.15,2013-07-27 12:29:00,
2013-07-27 08:34:00,72.0,69.2,30.00,WNW,283,0.0,-999.0,91,0.00,,,0.00,111,Wunderground v.1.15,2013-07-27 12:34:00,
2013-07-27 08:40:00,72.0,69.2,30.00,WNW,283,0.0,-999.0,91,0.00,,,0.00,107,Wunderground v.1.15,2013-07-27 12:40:00,
2013-07-27 08:46:00,72.1,69.3,30.00,WNW,283,0.0,-999.0,91,0.00,,,0.00,97,Wunderground v.1.15,2013-07-27 12:46:00,
2013-07-27 08:51:00,72.1,69.3,30.00,WNW,283,0.0,-999.0,91,0.00,,,0.00,81,Wunderground v.1.15,2013-07-27 12:51:00,
2013-07-27 08:56:00,72.2,69.1,30.00,WNW,284,0.0,-999.0,90,0.00,,,0.00,70,Wunderground v.1.15,2013-07-27 12:56:00,
2013-07-27 09:02:00,72.3,69.2,30.00,WNW,283,0.0,-999.0,90,0.00,,,0.00,69,Wunderground v.1.15,2013-07-27 13:02:00,
2013-07-27 09:07:00,72.3,69.2,30.00,WNW,283,0.0,-999.0,90,0.00,,,0.00,70,Wunderground v.1.15,2013-07-27 13:07:00,
2013-07-27 09:13:00,72.4,69.3,30.00,WNW,284,0.0,-999.0,90,0.00,,,0.00,74,Wunderground v.1.15,2013-07-27 13:13:00,
2013-07-27 09:18:00,72.4,69.3,30.00,WNW,283,0.0,-999.0,90,0.00,,,0.00,76,Wunderground v.1.15,2013-07-27 13:18:00,
2013-07-27 09:24:00,72.5,69.4,29.99,WNW,283,0.0,-999.0,90,0.00,,,0.00,70,Wunderground v.1.15,2013-07-27 13:24:00,
2013-07-27 09:29:00,72.5,69.4,29.99,WNW,283,0.0,-999.0,90,0.00,,,0.00,42,Wunderground v.1.15,2013-07-27 13:29:00,
2013-07-27 09:35:00,72.5,69.4,29.99,WNW,283,0.0,-999.0,90,0.00,,,0.00,51,Wunderground v.1.15,2013-07-27 13:35:00,
2013-07-27 09:41:00,72.5,69.4,29.99,WNW,283,0.0,-999.0,90,0.00,,,0.00,60,Wunderground v.1.15,2013-07-27 13:41:00,
2013-07-27 09:46:00,72.6,69.5,29.99,WNW,283,0.0,-999.0,90,0.00,,,0.00,77,Wunderground v.1.15,2013-07-27 13:46:00,
2013-07-27 09:51:00,72.6,69.5,29.99,WNW,284,0.0,-999.0,90,0.00,,,0.00,91,Wunderground v.1.15,2013-07-27 13:51:00,
2013-07-27 09:57:00,72.6,69.5,29.99,WNW,283,0.0,-999.0,90,0.00,,,0.00,148,Wunderground v.1.15,2013-07-27 13:57:00,
2013-07-27 10:02:00,72.7,69.6,29.99,WNW,283,0.0,-999.0,90,0.00,,,0.00,183,Wunderground v.1.15,2013-07-27 14:02:00,
2013-07-27 10:08:00,72.8,69.7,29.99,WNW,283,0.0,-999.0,90,0.00,,,0.00,188,Wunderground v.1.15,2013-07-27 14:08:00,
2013-07-27 10:13:00,73.0,69.9,29.98,WNW,284,0.0,-999.0,90,0.00,,,0.00,195,Wunderground v.1.15,2013-07-27 14:13:00,
2013-07-27 10:19:00,73.1,69.7,29.98,WNW,283,0.0,-999.0,89,0.00,,,0.00,195,Wunderground v.1.15,2013-07-27 14:19:00,
2013-07-27 10:25:00,73.3,69.9,29.98,WNW,283,0.0,-999.0,89,0.00,,,0.00,200,Wunderground v.1.15,2013-07-27 14:25:00,
2013-07-27 10:30:00,73.5,69.7,29.98,WNW,284,0.0,-999.0,88,0.00,,,0.00,188,Wunderground v.1.15,2013-07-27 14:30:00,
2013-07-27 10:35:00,73.7,69.6,29.98,West,265,0.0,-999.0,87,0.00,,,0.00,202,Wunderground v.1.15,2013-07-27 14:35:00,
2013-07-27 10:41:00,73.9,69.8,29.98,WSW,254,0.0,-999.0,87,0.00,,,0.00,225,Wunderground v.1.15,2013-07-27 14:41:00,
2013-07-27 10:46:00,74.3,70.2,29.98,WSW,254,0.0,-999.0,87,0.00,,,0.00,257,Wunderground v.1.15,2013-07-27 14:46:00,
2013-07-27 10:52:00,74.4,69.6,29.98,WSW,254,0.0,-999.0,85,0.00,,,0.00,272,Wunderground v.1.15,2013-07-27 14:52:00,
2013-07-27 10:58:00,74.8,70.0,29.98,South,190,0.0,-999.0,85,0.00,,,0.00,311,Wunderground v.1.15,2013-07-27 14:58:00,
2013-07-27 11:04:00,75.1,69.9,29.98,SSE,164,0.0,-999.0,84,0.00,,,0.00,209,Wunderground v.1.15,2013-07-27 15:04:00,
2013-07-27 11:09:00,75.4,69.5,29.98,SSE,168,0.0,-999.0,82,0.00,,,0.00,183,Wunderground v.1.15,2013-07-27 15:09:00,
2013-07-27 11:14:00,75.4,69.5,29.98,NW,305,0.0,-999.0,82,0.00,,,0.00,179,Wunderground v.1.15,2013-07-27 15:14:00,
2013-07-27 11:20:00,75.5,69.6,29.98,SE,137,0.0,-999.0,82,0.00,,,0.00,204,Wunderground v.1.15,2013-07-27 15:20:00,
2013-07-27 11:26:00,75.5,68.9,29.98,SE,145,0.0,-999.0,80,0.00,,,0.00,137,Wunderground v.1.15,2013-07-27 15:26:00,
2013-07-27 11:32:00,75.5,69.3,29.98,SE,145,0.0,-999.0,81,0.00,,,0.00,167,Wunderground v.1.15,2013-07-27 15:32:00,
2013-07-27 11:38:00,75.6,69.4,29.98,SE,145,0.0,-999.0,81,0.00,,,0.00,134,Wunderground v.1.15,2013-07-27 15:38:00,
2013-07-27 11:43:00,75.6,69.0,29.98,SE,145,0.0,-999.0,80,0.00,,,0.00,121,Wunderground v.1.15,2013-07-27 15:43:00,
2013-07-27 11:49:00,75.6,69.0,29.98,SE,145,0.0,-999.0,80,0.00,,,0.00,120,Wunderground v.1.15,2013-07-27 15:49:00,
2013-07-27 11:55:00,75.7,69.1,29.98,SE,145,0.0,-999.0,80,0.00,,,0.00,74,Wunderground v.1.15,2013-07-27 15:55:00,
2013-07-27 12:00:00,75.6,68.6,29.98,SE,145,0.0,-999.0,79,0.00,,,0.00,76,Wunderground v.1.15,2013-07-27 16:00:00,
2013-07-27 12:06:00,75.5,68.9,29.98,SE,145,0.0,-999.0,80,0.00,,,0.00,97,Wunderground v.1.15,2013-07-27 16:06:00,
2013-07-27 12:12:00,75.4,68.8,29.97,SE,145,0.0,-999.0,80,0.00,,,0.00,155,Wunderground v.1.15,2013-07-27 16:12:00,
2013-07-27 12:18:00,75.4,68.8,29.97,SSE,165,0.0,-999.0,80,0.00,,,0.00,387,Wunderground v.1.15,2013-07-27 16:18:00,
2013-07-27 12:24:00,75.6,68.6,29.97,SSE,165,0.0,-999.0,79,0.00,,,0.00,271,Wunderground v.1.15,2013-07-27 16:24:00,
2013-07-27 12:29:00,75.8,68.8,29.97,SSE,165,0.0,-999.0,79,0.00,,,0.00,236,Wunderground v.1.15,2013-07-27 16:29:00,
2013-07-27 12:35:00,76.1,68.7,29.97,SSE,165,0.0,-999.0,78,0.00,,,0.00,188,Wunderground v.1.15,2013-07-27 16:35:00,
2013-07-27 12:41:00,76.4,69.0,29.97,SSE,165,0.0,-999.0,78,0.00,,,0.00,188,Wunderground v.1.15,2013-07-27 16:41:00,
2013-07-27 12:46:00,76.7,69.3,29.97,SSE,165,0.0,-999.0,78,0.00,,,0.00,197,Wunderground v.1.15,2013-07-27 16:46:00,
2013-07-27 12:52:00,76.9,69.1,29.97,SSE,165,0.0,-999.0,77,0.00,,,0.00,156,Wunderground v.1.15,2013-07-27 16:52:00,
2013-07-27 12:58:00,77.1,69.7,29.97,SSE,165,0.0,-999.0,78,0.00,,,0.00,88,Wunderground v.1.15,2013-07-27 16:58:00,
2013-07-27 13:04:00,77.1,69.7,29.96,SSE,165,0.0,-999.0,78,0.00,,,0.00,91,Wunderground v.1.15,2013-07-27 17:04:00,
2013-07-27 13:09:00,77.1,69.7,29.96,SSE,165,0.0,-999.0,78,0.00,,,0.00,79,Wunderground v.1.15,2013-07-27 17:09:00,
2013-07-27 13:15:00,76.9,69.9,29.96,SSE,165,0.0,-999.0,79,0.00,,,0.00,86,Wunderground v.1.15,2013-07-27 17:15:00,
2013-07-27 13:20:00,76.6,70.0,29.96,SSE,165,0.0,-999.0,80,0.00,,,0.00,100,Wunderground v.1.15,2013-07-27 17:20:00,
2013-07-27 13:26:00,76.5,69.9,29.96,SSE,165,0.0,-999.0,80,0.00,,,0.00,79,Wunderground v.1.15,2013-07-27 17:26:00,
2013-07-27 13:32:00,76.4,70.1,29.95,SSE,165,0.0,-999.0,81,0.00,,,0.00,100,Wunderground v.1.15,2013-07-27 17:32:00,
2013-07-27 13:37:00,76.3,70.4,29.95,SSE,165,0.0,-999.0,82,0.00,,,0.00,105,Wunderground v.1.15,2013-07-27 17:37:00,
2013-07-27 13:42:00,76.2,70.3,29.95,SSE,165,0.0,-999.0,82,0.00,,,0.00,121,Wunderground v.1.15,2013-07-27 17:42:00,
2013-07-27 13:48:00,76.1,70.2,29.95,SSE,165,0.0,-999.0,82,0.00,,,0.00,81,Wunderground v.1.15,2013-07-27 17:48:00,
2013-07-27 13:54:00,76.0,70.1,29.95,SSE,165,0.0,-999.0,82,0.00,,,0.00,54,Wunderground v.1.15,2013-07-27 17:54:00,
2013-07-27 14:00:00,75.8,69.9,29.95,SSE,165,0.0,-999.0,82,0.00,,,0.00,35,Wunderground v.1.15,2013-07-27 18:00:00,
2013-07-27 14:05:00,75.7,70.2,29.95,SSE,165,0.0,-999.0,83,0.00,,,0.00,32,Wunderground v.1.15,2013-07-27 18:05:00,
2013-07-27 14:11:00,75.5,70.3,29.95,SSE,165,0.0,-999.0,84,0.00,,,0.00,25,Wunderground v.1.15,2013-07-27 18:11:00,
2013-07-27 14:16:00,75.3,70.1,29.94,SSE,165,0.0,-999.0,84,0.00,,,0.00,25,Wunderground v.1.15,2013-07-27 18:16:00,
2013-07-27 14:22:00,75.0,70.2,29.94,SSE,165,0.0,-999.0,85,0.00,,,0.00,14,Wunderground v.1.15,2013-07-27 18:22:00,
2013-07-27 14:27:00,74.6,70.1,29.94,NNE,15,0.0,-999.0,86,0.00,,,0.00,7,Wunderground v.1.15,2013-07-27 18:27:00,
2013-07-27 14:32:00,74.2,70.4,29.94,WSW,256,0.0,-999.0,88,0.00,,,0.00,0,Wunderground v.1.15,2013-07-27 18:32:00,
2013-07-27 14:38:00,73.1,69.0,29.96,NNW,330,3.0,-999.0,87,6.94,,,0.18,5,Wunderground v.1.15,2013-07-27 18:38:00,
2013-07-27 14:43:00,71.6,67.9,29.96,West,275,4.0,-999.0,88,2.38,,,0.48,7,Wunderground v.1.15,2013-07-27 18:43:00,
2013-07-27 14:49:00,70.6,67.2,29.95,SW,219,1.0,-999.0,89,1.67,,,0.85,14,Wunderground v.1.15,2013-07-27 18:49:00,
2013-07-27 14:54:00,69.9,66.5,29.95,SW,219,0.0,-999.0,89,0.23,,,0.88,7,Wunderground v.1.15,2013-07-27 18:54:00,
2013-07-27 15:00:00,69.2,66.1,29.95,NNE,13,0.0,-999.0,90,0.45,,,0.90,16,Wunderground v.1.15,2013-07-27 19:00:00,
2013-07-27 15:06:00,68.8,65.7,29.95,NNE,13,0.0,-999.0,90,0.18,,,0.92,19,Wunderground v.1.15,2013-07-27 19:06:00,
2013-07-27 15:11:00,68.6,65.9,29.95,NNE,13,0.0,-999.0,91,0.15,,,0.94,21,Wunderground v.1.15,2013-07-27 19:11:00,
2013-07-27 15:17:00,68.5,65.8,29.95,NNE,13,0.0,-999.0,91,0.31,,,0.97,25,Wunderground v.1.15,2013-07-27 19:17:00,
2013-07-27 15:23:00,68.4,65.7,29.95,NNE,13,0.0,-999.0,91,0.32,,,1.00,25,Wunderground v.1.15,2013-07-27 19:23:00,
2013-07-27 15:28:00,68.3,65.9,29.95,NNE,13,0.0,-999.0,92,0.35,,,1.03,23,Wunderground v.1.15,2013-07-27 19:28:00,
2013-07-27 15:34:00,68.4,66.0,29.95,NNE,13,0.0,-999.0,92,0.45,,,1.07,21,Wunderground v.1.15,2013-07-27 19:34:00,
2013-07-27 15:40:00,68.4,66.0,29.95,NNE,13,0.0,-999.0,92,0.40,,,1.11,19,Wunderground v.1.15,2013-07-27 19:40:00,
2013-07-27 15:45:00,68.3,65.9,29.94,NNE,13,0.0,-999.0,92,0.23,,,1.14,16,Wunderground v.1.15,2013-07-27 19:45:00,
2013-07-27 15:51:00,68.3,66.2,29.94,NNE,13,0.0,-999.0,93,0.48,,,1.17,18,Wunderground v.1.15,2013-07-27 19:51:00,
2013-07-27 15:57:00,68.4,66.3,29.94,NNE,13,0.0,-999.0,93,0.27,,,1.19,19,Wunderground v.1.15,2013-07-27 19:57:00,
2013-07-27 16:02:00,68.5,66.4,29.93,NNE,13,0.0,-999.0,93,0.27,,,1.21,23,Wunderground v.1.15,2013-07-27 20:02:00,
2013-07-27 16:07:00,68.5,66.4,29.93,NNE,13,0.0,-999.0,93,0.29,,,1.23,37,Wunderground v.1.15,2013-07-27 20:07:00,
2013-07-27 16:13:00,68.5,66.4,29.92,NNE,13,0.0,-999.0,93,0.15,,,1.25,72,Wunderground v.1.15,2013-07-27 20:13:00,
2013-07-27 16:18:00,68.5,66.4,29.92,NNE,13,0.0,-999.0,93,0.07,,,1.25,77,Wunderground v.1.15,2013-07-27 20:18:00,
2013-07-27 16:24:00,68.6,66.8,29.91,East,101,0.0,-999.0,94,0.04,,,1.26,97,Wunderground v.1.15,2013-07-27 20:24:00,
2013-07-27 16:30:00,68.8,67.0,29.91,East,101,0.0,-999.0,94,0.04,,,1.26,107,Wunderground v.1.15,2013-07-27 20:30:00,
2013-07-27 16:36:00,69.0,67.2,29.91,East,101,0.0,-999.0,94,0.04,,,1.26,186,Wunderground v.1.15,2013-07-27 20:36:00,
2013-07-27 16:41:00,69.3,67.5,29.91,South,186,0.0,-999.0,94,0.00,,,1.26,221,Wunderground v.1.15,2013-07-27 20:41:00,
2013-07-27 16:47:00,69.5,67.7,29.91,SE,124,0.0,-999.0,94,0.00,,,1.26,186,Wunderground v.1.15,2013-07-27 20:47:00,
2013-07-27 16:52:00,69.6,68.1,29.91,SSW,199,0.0,-999.0,95,0.00,,,1.26,153,Wunderground v.1.15,2013-07-27 20:52:00,
2013-07-27 16:58:00,69.7,68.2,29.91,South,175,0.0,-999.0,95,0.00,,,1.26,130,Wunderground v.1.15,2013-07-27 20:58:00,
2013-07-27 17:03:00,69.6,67.8,29.91,ESE,104,0.0,-999.0,94,0.00,,,1.26,221,Wunderground v.1.15,2013-07-27 21:03:00,
2013-07-27 17:09:00,69.6,68.1,29.91,South,176,0.0,-999.0,95,0.00,,,1.26,225,Wunderground v.1.15,2013-07-27 21:09:00,
2013-07-27 17:14:00,69.7,68.2,29.92,WNW,302,0.0,-999.0,95,0.00,,,1.26,162,Wunderground v.1.15,2013-07-27 21:14:00,
2013-07-27 17:20:00,69.7,68.2,29.92,SSW,200,0.0,-999.0,95,0.00,,,1.26,109,Wunderground v.1.15,2013-07-27 21:20:00,
2013-07-27 17:26:00,69.7,68.2,29.92,SSW,208,0.0,-999.0,95,0.00,,,1.26,97,Wunderground v.1.15,2013-07-27 21:26:00,
2013-07-27 17:31:00,69.6,68.1,29.92,SSW,195,0.0,-999.0,95,0.00,,,1.26,88,Wunderground v.1.15,2013-07-27 21:31:00,
2013-07-27 17:37:00,69.5,68.0,29.92,SSW,195,0.0,-999.0,95,0.00,,,1.26,100,Wunderground v.1.15,2013-07-27 21:37:00,
2013-07-27 17:42:00,69.5,68.0,29.92,SSW,195,0.0,-999.0,95,0.00,,,1.26,123,Wunderground v.1.15,2013-07-27 21:42:00,
2013-07-27 17:48:00,69.5,68.0,29.92,SSW,197,0.0,-999.0,95,0.00,,,1.26,148,Wunderground v.1.15,2013-07-27 21:48:00,
2013-07-27 17:53:00,69.5,68.0,29.92,SSW,197,0.0,-999.0,95,0.00,,,1.26,135,Wunderground v.1.15,2013-07-27 21:53:00,
2013-07-27 17:58:00,69.6,68.1,29.92,SSW,197,0.0,-999.0,95,0.00,,,1.26,128,Wunderground v.1.15,2013-07-27 21:58:00,
2013-07-27 18:03:00,69.7,68.2,29.92,SSW,197,0.0,-999.0,95,0.00,,,1.26,121,Wunderground v.1.15,2013-07-27 22:03:00,
2013-07-27 18:09:00,69.7,68.2,29.92,SSW,197,0.0,-999.0,95,0.00,,,1.26,109,Wunderground v.1.15,2013-07-27 22:09:00,
2013-07-27 18:14:00,69.8,68.3,29.92,SSW,197,0.0,-999.0,95,0.00,,,1.26,121,Wunderground v.1.15,2013-07-27 22:14:00,
2013-07-27 18:19:00,69.7,68.2,29.92,SSW,197,0.0,-999.0,95,0.00,,,1.26,130,Wunderground v.1.15,2013-07-27 22:19:00,
2013-07-27 18:25:00,69.6,67.8,29.92,SSW,197,0.0,-999.0,94,0.00,,,1.26,123,Wunderground v.1.15,2013-07-27 22:25:00,
2013-07-27 18:30:00,69.7,68.2,29.92,SSW,197,0.0,-999.0,95,0.00,,,1.26,127,Wunderground v.1.15,2013-07-27 22:30:00,
2013-07-27 18:36:00,69.7,67.9,29.92,SSW,197,0.0,-999.0,94,0.00,,,1.26,171,Wunderground v.1.15,2013-07-27 22:36:00,
2013-07-27 18:42:00,69.7,67.9,29.91,SSW,197,0.0,-999.0,94,0.00,,,1.26,229,Wunderground v.1.15,2013-07-27 22:42:00,
2013-07-27 18:47:00,70.1,68.3,29.91,SSW,197,0.0,-999.0,94,0.00,,,1.26,192,Wunderground v.1.15,2013-07-27 22:47:00,
2013-07-27 18:53:00,70.3,68.8,29.91,SSW,197,0.0,-999.0,95,0.00,,,1.26,128,Wunderground v.1.15,2013-07-27 22:53:00,
2013-07-27 18:58:00,70.3,68.5,29.91,SSW,197,0.0,-999.0,94,0.00,,,1.26,91,Wunderground v.1.15,2013-07-27 22:58:00,
2013-07-27 19:03:00,70.4,68.6,29.92,SSW,197,0.0,-999.0,94,0.00,,,1.26,70,Wunderground v.1.15,2013-07-27 23:03:00,
2013-07-27 19:08:00,70.4,68.6,29.92,SSW,197,0.0,-999.0,94,0.00,,,1.26,67,Wunderground v.1.15,2013-07-27 23:08:00,
2013-07-27 19:14:00,70.4,68.6,29.92,SSW,197,0.0,-999.0,94,0.00,,,1.26,58,Wunderground v.1.15,2013-07-27 23:14:00,
2013-07-27 19:20:00,70.4,68.6,29.92,SSW,197,0.0,-999.0,94,0.00,,,1.26,56,Wunderground v.1.15,2013-07-27 23:20:00,
2013-07-27 19:25:00,70.4,68.6,29.92,SSW,197,0.0,-999.0,94,0.00,,,1.26,56,Wunderground v.1.15,2013-07-27 23:25:00,
2013-07-27 19:30:00,70.3,68.5,29.92,SSW,197,0.0,-999.0,94,0.00,,,1.26,53,Wunderground v.1.15,2013-07-27 23:30:00,
2013-07-27 19:36:00,70.3,68.2,29.92,SSW,197,0.0,-999.0,93,0.00,,,1.26,44,Wunderground v.1.15,2013-07-27 23:36:00,
2013-07-27 19:41:00,70.3,68.2,29.92,SSW,197,0.0,-999.0,93,0.00,,,1.26,30,Wunderground v.1.15,2013-07-27 23:41:00,
2013-07-27 19:46:00,70.2,68.1,29.91,SSW,197,0.0,-999.0,93,0.00,,,1.26,23,Wunderground v.1.15,2013-07-27 23:46:00,
2013-07-27 19:52:00,70.1,68.0,29.92,SSW,197,0.0,-999.0,93,0.00,,,1.26,14,Wunderground v.1.15,2013-07-27 23:52:00,
2013-07-27 19:57:00,70.0,67.9,29.91,SSW,197,0.0,-999.0,93,0.00,,,1.26,7,Wunderground v.1.15,2013-07-27 23:57:00,
2013-07-27 20:03:00,70.0,67.9,29.91,SSW,197,0.0,-999.0,93,0.00,,,1.26,0,Wunderground v.1.15,2013-07-28 00:03:00,
2013-07-27 20:09:00,69.9,67.8,29.92,SSW,197,0.0,-999.0,93,0.00,,,1.26,0,Wunderground v.1.15,2013-07-28 00:09:00,
2013-07-27 20:14:00,69.9,67.8,29.92,SSW,197,0.0,-999.0,93,0.00,,,1.26,0,Wunderground v.1.15,2013-07-28 00:14:00,
2013-07-27 20:20:00,69.9,67.8,29.92,SSW,197,0.0,-999.0,93,0.00,,,1.26,0,Wunderground v.1.15,2013-07-28 00:20:00,
2013-07-27 20:25:00,69.9,68.1,29.92,SSW,197,0.0,-999.0,94,0.00,,,1.26,0,Wunderground v.1.15,2013-07-28 00:25:00,
2013-07-27 20:31:00,69.9,68.1,29.91,SSW,197,0.0,-999.0,94,0.00,,,1.26,0,Wunderground v.1.15,2013-07-28 00:31:00,
2013-07-27 20:36:00,69.8,68.0,29.92,SSW,197,0.0,-999.0,94,0.00,,,1.26,0,Wunderground v.1.15,2013-07-28 00:36:00,
2013-07-27 20:42:00,69.8,68.0,29.92,SSW,197,0.0,-999.0,94,0.00,,,1.26,0,Wunderground v.1.15,2013-07-28 00:42:00,
2013-07-27 20:47:00,69.7,67.9,29.92,SSW,197,0.0,-999.0,94,0.00,,,1.26,0,Wunderground v.1.15,2013-07-28 00:47:00,
2013-07-27 20:52:00,69.6,67.8,29.92,SSW,197,0.0,-999.0,94,0.00,,,1.26,0,Wunderground v.1.15,2013-07-28 00:52:00,
2013-07-27 20:58:00,69.6,67.8,29.92,SSW,197,0.0,-999.0,94,0.00,,,1.26,0,Wunderground v.1.15,2013-07-28 00:58:00,
2013-07-27 21:03:00,69.5,67.7,29.92,SSW,197,0.0,-999.0,94,0.00,,,1.26,0,Wunderground v.1.15,2013-07-28 01:03:00,
2013-07-27 21:08:00,69.5,67.7,29.92,SSW,197,0.0,-999.0,94,0.00,,,1.26,0,Wunderground v.1.15,2013-07-28 01:08:00,
2013-07-27 21:14:00,69.4,67.6,29.92,SSW,197,0.0,-999.0,94,0.00,,,1.26,0,Wunderground v.1.15,2013-07-28 01:14:00,
2013-07-27 21:19:00,69.3,67.5,29.92,SSW,197,0.0,-999.0,94,0.00,,,1.26,0,Wunderground v.1.15,2013-07-28 01:19:00,
2013-07-27 21:24:00,69.2,67.4,29.93,SSW,197,0.0,-999.0,94,0.00,,,1.26,0,Wunderground v.1.15,2013-07-28 01:24:00,
2013-07-27 21:30:00,69.1,67.3,29.93,SSW,197,0.0,-999.0,94,0.00,,,1.26,0,Wunderground v.1.15,2013-07-28 01:30:00,
2013-07-27 21:37:00,69.0,67.2,29.93,SSW,197,0.0,-999.0,94,0.00,,,1.26,0,Wunderground v.1.15,2013-07-28 01:37:00,
2013-07-27 21:41:00,69.0,67.2,29.93,SSW,197,0.0,-999.0,94,0.00,,,1.26,0,Wunderground v.1.15,2013-07-28 01:41:00,
2013-07-27 21:47:00,68.9,67.1,29.94,SSW,197,0.0,-999.0,94,0.00,,,1.26,0,Wunderground v.1.15,2013-07-28 01:47:00,
2013-07-27 21:52:00,68.9,67.1,29.94,SSW,197,0.0,-999.0,94,0.00,,,1.26,0,Wunderground v.1.15,2013-07-28 01:52:00,
2013-07-27 21:58:00,68.8,67.0,29.94,SSW,197,0.0,-999.0,94,0.00,,,1.26,0,Wunderground v.1.15,2013-07-28 01:58:00,
2013-07-27 22:04:00,68.8,67.0,29.95,SSW,197,0.0,-999.0,94,0.00,,,1.26,0,Wunderground v.1.15,2013-07-28 02:04:00,
2013-07-27 22:09:00,68.8,67.0,29.95,SSW,197,0.0,-999.0,94,0.00,,,1.26,0,Wunderground v.1.15,2013-07-28 02:09:00,
2013-07-27 22:15:00,68.8,67.0,29.95,SSW,197,0.0,-999.0,94,0.00,,,1.26,0,Wunderground v.1.15,2013-07-28 02:15:00,
2013-07-27 22:21:00,68.8,67.0,29.94,SSW,197,0.0,-999.0,94,0.00,,,1.26,0,Wunderground v.1.15,2013-07-28 02:21:00,
2013-07-27 22:27:00,68.8,67.0,29.95,SSW,197,0.0,-999.0,94,0.00,,,1.26,0,Wunderground v.1.15,2013-07-28 02:27:00,
2013-07-27 22:32:00,68.8,67.0,29.94,SSW,197,0.0,-999.0,94,0.00,,,1.26,0,Wunderground v.1.15,2013-07-28 02:32:00,
2013-07-27 22:38:00,68.7,67.2,29.94,SSW,197,0.0,-999.0,95,0.00,,,1.26,0,Wunderground v.1.15,2013-07-28 02:38:00,
2013-07-27 22:43:00,68.7,66.9,29.93,SSW,197,0.0,-999.0,94,0.00,,,1.26,0,Wunderground v.1.15,2013-07-28 02:43:00,
2013-07-27 22:49:00,68.6,66.8,29.93,SSW,197,0.0,-999.0,94,0.00,,,1.26,0,Wunderground v.1.15,2013-07-28 02:49:00,
2013-07-27 22:54:00,68.6,66.8,29.93,SSW,197,0.0,-999.0,94,0.00,,,1.26,0,Wunderground v.1.15,2013-07-28 02:54:00,
2013-07-27 23:00:00,68.6,66.8,29.93,SSW,197,0.0,-999.0,94,0.00,,,1.26,0,Wunderground v.1.15,2013-07-28 03:00:00,
2013-07-27 23:05:00,68.6,66.8,29.93,SSW,197,0.0,-999.0,94,0.00,,,1.26,0,Wunderground v.1.15,2013-07-28 03:05:00,
2013-07-27 23:11:00,68.6,66.8,29.92,SSW,197,0.0,-999.0,94,0.00,,,1.26,0,Wunderground v.1.15,2013-07-28 03:11:00,
2013-07-27 23:17:00,68.6,67.1,29.92,SSW,197,0.0,-999.0,95,0.00,,,1.26,0,Wunderground v.1.15,2013-07-28 03:17:00,
2013-07-27 23:23:00,68.6,67.1,29.92,SSW,197,0.0,-999.0,95,0.00,,,1.26,0,Wunderground v.1.15,2013-07-28 03:23:00,
2013-07-27 23:28:00,68.6,67.1,29.93,SSW,197,0.0,-999.0,95,0.00,,,1.26,0,Wunderground v.1.15,2013-07-28 03:28:00,
2013-07-27 23:34:00,68.6,67.1,29.93,SSW,197,0.0,-999.0,95,0.00,,,1.26,0,Wunderground v.1.15,2013-07-28 03:34:00,
2013-07-27 23:40:00,68.5,67.0,29.93,SSW,197,0.0,-999.0,95,0.00,,,1.26,0,Wunderground v.1.15,2013-07-28 03:40:00,
2013-07-27 23:45:00,68.5,67.0,29.93,SSW,197,0.0,-999.0,95,0.00,,,1.26,0,Wunderground v.1.15,2013-07-28 03:45:00,
2013-07-27 23:51:00,68.6,67.1,29.92,SSW,197,0.0,-999.0,95,0.00,,,1.26,0,Wunderground v.1.15,2013-07-28 03:51:00,
2013-07-27 23:56:00,68.6,67.1,29.92,SSW,197,0.0,-999.0,95,0.00,,,1.26,0,Wunderground v.1.15,2013-07-28 03:56:00,